Location: Wildlife_Club
(35.6000°N, 81.4330°W)
Time: 09:51:58
(UTC-04:00)

A-11 Canister half - Pass Details

Date: 27 June 2019
Orbit: 1514 x 1685 km, 47.2° (Epoch: 20 July)

Event Time Altitude Azimuth Distance (km) Brightness Sun altitude
Rises 15:39:56 0° 302° (WNW) 4,840 11.9 59.1°
Reaches altitude 10° 15:43:10 10° 305° (NW) 3,829 11.5 58.5°
Maximum altitude 15:52:48 63° 26° (NNE) 1,714 9.9 56.6°
Drops below altitude 10° 16:02:03 10° 107° (ESE) 3,697 10.8 54.7°
Sets 16:05:07 0° 111° (ESE) 4,665 11.2 54.1°
